アトラス彗星

C/2019 C1 ( ATLAS )

English version
Home page
Updated on September 18, 2021

---------------------------------------------------------------------

・ プロフィール

発見日 2019年2月5日
発見光度 17.7等
発見者 Asteroid Terrestrial-Impact Last Alert System (ATLAS) search program

・ 写真集

・ 軌道要素

Epoch 2020 Apr. 21.0 TT = JDT 2458960.5
T 2020 May 5.72804 TT                                   Rudenko
q   6.5813045            (2000.0)            P               Q
z  +0.0011995      Peri.  319.18994     -0.92230516     -0.22381939
 +/-0.0000009      Node   212.39737     +0.19031685     -0.97256449
e   0.9921058      Incl.   36.01642     -0.33635204     +0.06342866
From 664 observations 2019 Jan. 14-2021 May 1, mean residual 0".6.

・ 星図

・ 光度変化

        m1 = -3.5 + 5 logΔ + 20.0 log r(t + 100)

---------------------------------------------------------------------

軌道要素はM.P.E.C. 2021-J28に掲載されたものです。
星図はステラナビゲータ Ver.10 (アストロアーツ) で作成したものです。
光度グラフはComet for Windowsで作成したものです。

---------------------------------------------------------------------

Copyright(C) Seiichi Yoshida (comet@aerith.net). All rights reserved.